Other Public Products
Issued by NWS Grand Forks, ND

Home | Current Version | Previous Version | Text Only | Print | Product List | Glossary Off
Versions: 1 2 3 4 5 6 7 8 9 10 11 12 13 14 15 16 17 18 19 20 21 22 23 24 25 26 27 28 29 30 31 32 33 34 35 36 37 38 39 40 41 42 43 44 45 46 47 48 49 50

000
FPUS83 KFGF 300631
OPUFGF
PRAIRIE TO PINES WEATHER ROUNDUP
NATIONAL WEATHER SERVICE EASTERN NORTH DAKOTA/GRAND FORKS ND
100 AM CDT THU OCT 30 2014

 **SATELLITE DATA USED TO AUGMENT SKY COVER AT AUTOMATED STATIONS**
 *****  WEATHER ACROSS EASTERN NORTH DAKOTA  *****

CITY           SKY/WX    TMP DP  RH WIND       PRES   REMARKS
GRAND FORKS    CLOUDY    38  32  79 SE9       29.98S
6HR MIN TEMP:  38; 6HR MAX TEMP:  40; 6HR PCP: TRACE;

GRAND FORKS AF CLOUDY    38  34  87 S6        29.98S
GRAND CITY NWS   N/A     37 N/A N/A SE7         N/A
BUXTON           N/A     37  37  99 SE8         N/A
DEVILS LAKE    CLEAR     34  25  69 NE6       29.94R
6HR MIN TEMP:  34; 6HR MAX TEMP:  43;

FARGO          CLOUDY    40  34  79 SE10      29.98F
6HR MIN TEMP:  40; 6HR MAX TEMP:  42;

WAHPETON ARPT  CLOUDY    37  34  87 SE9       30.00F
$$

 *****  WEATHER ACROSS CENTRAL AND WESTERN NORTH DAKOTA  *****

CITY           SKY/WX    TMP DP  RH WIND       PRES   REMARKS
JAMESTOWN      MOCLDY    40  38  93 SW5       29.94R
6HR MIN TEMP:  40; 6HR MAX TEMP:  46; 6HR PCP: TRACE;

BISMARCK       CLEAR     39  39 100 W6        29.97S
6HR MIN TEMP:  39; 6HR MAX TEMP:  46; 6HR PCP:  0.03;

MINOT          CLEAR     32  29  88 NW10      30.01R WCI  24
6HR MIN TEMP:  32; 6HR MAX TEMP:  43;

MINOT AFB      CLEAR     31  31  98 NW10      30.01R WCI  23
6HR MIN TEMP:  31; 6HR MAX TEMP:  39;

GARRISON         N/A     35  33  92 NW10      29.99R
6HR MIN TEMP:  34; 6HR MAX TEMP:  44;

WILLISTON      CLEAR     37  32  82 NW10      30.08R
6HR MIN TEMP:  37; 6HR MAX TEMP:  46;

DICKINSON      CLEAR     38  33  82 NW10      30.02R
6HR MIN TEMP:  36; 6HR MAX TEMP:  45;

HETTINGER      CLEAR     38  33  82 NW10      30.04R
6HR MIN TEMP:  33; 6HR MAX TEMP:  46;

$$

 *****  OTHER OBSERVATIONS NORTHEAST NORTH DAKOTA  *****

CITY           SKY/WX    TMP DP  RH WIND       PRES   REMARKS
WALHALLA       FAIR      32  32 100 NE3       30.04R
LANGDON        FAIR      32  27  80 NE8       29.99R WCI  25
CAVALIER       FAIR      36  28  75 E5        30.03R
GRAFTON        MOCLDY    36  30  80 E8        30.01S
CANDO          FAIR      28  27  93 NE8       29.99R WCI  20
FORT TOTTEN    NOT AVBL
ROLLA          FAIR      27  27 100 N8        30.02R WCI  18
RUGBY          FAIR      28  28 100 NE8       29.99R WCI  20
 ***** THE ABOVE OBSERVATIONS ARE NON NWS ARE NOT QUALITY
        CONTROLLED AND MAY MIS-REPORT RAIN FOR SNOW...
$$

 *****  OTHER OBSERVATIONS SOUTHEAST NORTH DAKOTA *****

CITY           SKY/WX    TMP DP  RH WIND       PRES   REMARKS
COOPERSTOWN    NOT AVBL
VALLEY CITY    LGT RAIN  41  41 100 SW8       29.95R
OAKES            N/A     41  41 100 SE7       29.95F
GWINNER        CLOUDY    39  39 100 SE7       29.98S
SHEYENNE NWR     N/A     39  37  94 SE7       29.95S
BUFFALO        NOT AVBL
WYNDMERE       NOT AVBL
 ***** THE ABOVE OBSERVATIONS ARE NON NWS ARE NOT QUALITY
       CONTROLLED AND MAY MIS-REPORT RAIN FOR SNOW...
$$

  *****  WEATHER ACROSS NORTHERN MINNESOTA  *****

CITY           SKY/WX    TMP DP  RH WIND       PRES   REMARKS
FLAG ISLAND    DRIZZLE   36  32  87 NW8       30.03S
WARROAD        CLOUDY    32  28  86 CALM      30.05R
ROSEAU         MOCLDY    32  27  80 E3        30.04S
HALLOCK        MOCLDY    36  32  87 E6        30.03S
THF RVR FALLS  CLOUDY    36  30  80 E6        30.02R
6HR MIN TEMP:  34; 6HR MAX TEMP:  36;

HALSTAD          N/A     39  34  81 S7          N/A
FOSSTON        DRIZZLE   34  34 100 CALM      30.01R
BAUDETTE       CLOUDY    34  32  92 S3        30.03S
6HR MIN TEMP:  34; 6HR MAX TEMP:  36;

WASKISH        CLOUDY    36  32  87 CALM      30.04R
CROOKSTON      MIX PCPN  37  36  93 SE7       30.01S
$$
  *****  WEATHER ACROSS CENTRAL AND WEST MINNESOTA  *****

CITY           SKY/WX    TMP DP  RH WIND       PRES   REMARKS
BEMIDJI        CLOUDY    34  30  86 E3        30.02R
PARK RAPIDS    CLOUDY    35  30  82 SE5       30.01F
6HR MIN TEMP:  34; 6HR MAX TEMP:  35;

WADENA         DRIZZLE   34  30  86 SE3       30.01F
DETROIT LAKES  CLOUDY    37  34  87 SE6       30.01S
MOORHEAD       MOCLDY    39  37  93 SE9       29.99F
FERGUS FALLS   CLOUDY    37  36  93 S8        30.03S
ELBOW LAKE     DRIZZLE   37  35  92 SE8       30.01F
6HR MIN TEMP:  35; 6HR MAX TEMP:  38;

MORRIS MN      RAIN      37  36  93 SE8       30.01F
STAPLES        CLOUDY    36  30  80 CALM      30.03F
WHEATON        DRIZZLE   36  34  93 E8        30.03F
$$
  *****  WEATHER ELSEWHERE ACROSS MINNESOTA  *****

CITY           SKY/WX    TMP DP  RH WIND       PRES   REMARKS
DULUTH         CLOUDY    36  32  85 SW5       30.04S
6HR MIN TEMP:  36; 6HR MAX TEMP:  39;

INTRNTL FALLS  CLOUDY    35  33  92 W5        30.03S
6HR MIN TEMP:  34; 6HR MAX TEMP:  36; 6HR PCP: TRACE;

ELY            CLOUDY    34  34 100 CALM      30.02F
CLOQUET        CLOUDY    36  32  87 CALM      30.04F
BRAINERD       CLOUDY    34  31  88 S3        30.05F
6HR MIN TEMP:  34; 6HR MAX TEMP:  37;

HIBBING        CLOUDY    36  32  85 CALM      30.03F
6HR MIN TEMP:  35; 6HR MAX TEMP:  37; 6HR PCP: TRACE;

ALEXANDRIA     CLOUDY    37  32  82 S8        30.04S
6HR MIN TEMP:  34; 6HR MAX TEMP:  37;

SAINT CLOUD    LGT RAIN  38  33  82 CALM      30.07S
6HR MIN TEMP:  35; 6HR MAX TEMP:  41; 6HR PCP: TRACE;

MINNEAPOLIS    CLOUDY    38  32  79 E5        30.08F
6HR MIN TEMP:  37; 6HR MAX TEMP:  41;

$$

  *****  WEATHER ACROSS SOUTH DAKOTA  *****

CITY           SKY/WX    TMP DP  RH WIND       PRES   REMARKS
SIOUX FALLS    CLOUDY    47  32  56 S10       29.99S
6HR MIN TEMP:  44; 6HR MAX TEMP:  48;

BROOKINGS      NOT AVBL
WATERTOWN      CLOUDY    42  35  76 SE6       29.96F
6HR MIN TEMP:  40; 6HR MAX TEMP:  45; 6HR PCP:  0.01;

HURON          CLOUDY    46  33  60 S7        29.96R
6HR MIN TEMP:  46; 6HR MAX TEMP:  50;

SISSETON         N/A     39  38  96 S5        29.99F
ABERDEEN       CLOUDY    45  37  73 CALM      29.97R
6HR MIN TEMP:  45; 6HR MAX TEMP:  48; 6HR PCP: TRACE;

MITCHELL       CLOUDY    47  34  60 S5        29.97S
PIERRE         CLEAR     46  36  68 W9        29.99R
6HR MIN TEMP:  39; 6HR MAX TEMP:  53;

MOBRIDGE       CLEAR     41  34  76 NW9       29.96R
RAPID CITY     CLEAR     43  32  65 NW13      30.11R
6HR MIN TEMP:  39; 6HR MAX TEMP:  51;

$$

  *****  SOME WEATHER IN NEARBY STATES *****

CITY           SKY/WX    TMP DP  RH WIND       PRES   REMARKS
GLASGOW MT     CLEAR     35  30  82 NE5       30.14R
6HR MIN TEMP:  35; 6HR MAX TEMP:  56;

GREAT FALLS MT CLEAR     42  34  73 SW12      30.18S
6HR MIN TEMP:  39; 6HR MAX TEMP:  53;

CHEYENNE WY    CLEAR     47  24  40 N14       30.24R
6HR MIN TEMP:  45; 6HR MAX TEMP:  56;

SCOTTSBLUFF NE MOCLDY    43  29  57 NW9       30.18R
6HR MIN TEMP:  41; 6HR MAX TEMP:  60;

OMAHA NE       PTCLDY    45  31  58 S7        30.06F
6HR MIN TEMP:  44; 6HR MAX TEMP:  50;

DES MOINES IA  MOCLDY    42  33  70 S6        30.11S
6HR MIN TEMP:  42; 6HR MAX TEMP:  51;

DAVENPORT IA   CLEAR     32  26  78 CALM      30.15R
6HR MIN TEMP:  32; 6HR MAX TEMP:  42;

CHICAGO IL     CLEAR     37  31  78 W5        30.13S
6HR MIN TEMP:  36; 6HR MAX TEMP:  47;

EAU CLAIRE WI  MOCLDY    34  30  85 CALM      30.09S
6HR MIN TEMP:  32; 6HR MAX TEMP:  42;

LA CROSSE WI   MOCLDY    37  33  85 SE5       30.11F
6HR MIN TEMP:  36; 6HR MAX TEMP:  43;

$$

  *****  SOME NATIONAL WEATHER *****

CITY           SKY/WX    TMP DP  RH WIND       PRES   REMARKS



USA.gov is the U.S. government's official web portal to all federal, state and local government web resources and services.